Date,TemperatureHighF,TemperatureAvgF,TemperatureLowF,DewpointHighF,DewpointAvgF,DewpointLowF,HumidityHigh,HumidityAvg,HumidityLow,PressureMaxIn,PressureMinIn,WindSpeedMaxMPH,WindSpeedAvgMPH,GustSpeedMaxMPH,PrecipitationSumIn
2013-7-1,77.4,66.8,55.8,60.0,53.5,49.3,79,64,40,29.65,29.56,8,3,8,0.00
2013-7-2,74.0,64.2,55.1,55.3,50.1,45.7,85,62,41,29.65,29.60,8,2,8,0.00
2013-7-3,70.6,64.2,59.0,62.3,57.7,48.2,89,80,65,29.61,29.53,6,1,6,0.03
2013-7-4,80.1,70.7,63.2,61.8,60.4,58.2,92,72,49,29.59,29.53,6,3,6,0.00
2013-7-5,83.2,75.5,62.6,67.3,62.6,58.8,87,65,50,29.58,29.50,12,5,12,0.00
2013-7-6,83.9,74.3,63.0,67.6,63.0,58.2,86,69,50,29.56,29.46,10,4,10,0.00
2013-7-7,85.1,75.8,65.9,72.6,67.5,61.4,91,76,61,29.50,29.42,8,4,8,0.00
2013-7-8,83.3,75.4,70.2,75.3,70.8,66.6,96,86,74,29.51,29.40,11,3,11,0.63
2013-7-9,81.5,73.8,65.2,75.3,69.8,62.5,93,87,77,29.53,29.31,13,3,13,0.26
2013-7-10,76.0,71.4,62.6,71.6,61.9,55.6,93,73,53,29.54,29.34,13,3,13,0.01
2013-7-11,78.8,69.7,56.2,61.9,57.7,52.0,89,67,48,29.64,29.53,7,1,7,0.00
2013-7-12,82.3,70.0,56.5,61.9,56.1,51.4,85,64,37,29.68,29.59,5,2,5,0.00
2013-7-13,83.0,71.4,59.2,65.0,58.8,52.7,83,66,47,29.68,29.60,9,3,9,0.00
2013-7-14,86.6,74.7,60.5,70.2,63.9,55.1,86,70,54,29.75,29.67,7,2,7,0.21
2013-7-15,89.3,78.2,65.9,74.3,68.9,61.8,88,74,55,29.80,29.74,7,2,7,0.04
2013-7-16,89.6,80.8,72.2,76.8,72.9,67.8,90,78,62,29.80,29.73,8,2,8,0.00
2013-7-17,90.9,81.5,73.6,76.8,73.0,69.5,92,76,56,29.80,29.67,9,2,9,0.00
2013-7-18,90.2,82.3,73.8,75.3,72.5,70.4,92,74,55,29.68,29.40,9,4,9,0.00
2013-7-19,88.6,80.3,70.4,74.4,69.0,61.4,85,69,51,29.40,29.25,14,5,14,0.00
2013-7-20,81.7,72.0,63.9,65.6,60.7,54.6,83,68,53,29.50,29.35,6,3,6,0.00
2013-7-21,79.0,65.5,59.2,64.6,58.9,53.7,94,80,58,29.52,29.41,8,2,8,1.37
2013-7-22,81.5,71.2,59.4,71.8,65.6,57.4,96,84,65,29.43,29.14,13,4,13,0.00
2013-7-23,73.3,67.2,57.4,65.4,56.6,50.2,86,69,56,29.53,29.24,9,2,9,0.00
2013-7-24,72.7,62.6,52.0,54.8,51.8,47.5,87,69,50,29.61,29.53,5,1,5,0.00
2013-7-25,76.7,66.1,53.6,63.7,58.1,48.8,88,76,61,29.59,29.48,12,4,12,0.00
2013-7-26,74.3,66.5,59.4,67.0,60.3,53.9,93,81,58,29.48,29.35,12,4,12,0.00
2013-7-27,60.8,54.8,50.0,55.4,47.6,44.4,89,77,63,29.46,29.37,15,4,15,0.01
2013-7-28,65.2,57.6,51.3,54.7,50.7,48.1,91,79,66,29.51,29.34,14,4,14,0.00
2013-7-29,71.6,60.0,53.6,58.6,52.2,48.6,84,76,61,29.68,29.51,5,2,5,0.00